Location: Łódź
(51.7951°N, 19.4477°E)
Time: 16:44:50
(UTC+02:00)

N. Korean satellite - Visible Passes

Search period start: 16 October 2019 00:00
Search period end: 26 October 2019 00:00
Orbit: 455 x 508 km, 97.2° (Epoch: 15 October)

Date Brightness Start Highest point End Pass type
(mag) Time Alt. Az. Time Alt. Az. Time Alt. Az.
17 Oct 7.7 06:29:22 10° NNE 06:32:52 49° E 06:36:23 10° S visible
17 Oct 9.9 18:44:45 10° SW 18:47:02 17° W 18:49:21 10° NW visible
18 Oct 9.1 06:04:21 10° NE 06:07:28 26° E 06:10:34 10° SSE visible
18 Oct 8.8 18:18:28 10° SSW 18:21:32 30° W 18:24:39 10° NNW visible
19 Oct 10.1 05:39:48 10° NE 05:41:58 15° E 05:44:08 10° SE visible
20 Oct 10.4 19:03:41 10° WSW 19:04:42 11° W 19:05:43 10° WNW visible
21 Oct 8.2 06:21:35 10° NNE 06:25:03 41° E 06:28:31 10° S visible
21 Oct 9.6 18:36:32 10° SW 18:39:08 20° W 18:41:47 10° NW visible
22 Oct 9.4 05:56:40 10° NE 05:59:36 23° E 06:02:33 10° SSE visible
22 Oct 8.3 18:10:27 10° SSW 18:13:40 37° W 18:16:56 10° NNW visible
23 Oct 10.2 05:32:20 10° ENE 05:34:04 13° E 05:35:48 10° ESE visible
24 Oct 7.1 06:38:56 10° NNE 06:42:34 66° ESE 06:46:13 10° S visible
24 Oct 10.1 18:54:58 10° WSW 18:56:45 13° W 18:58:33 10° WNW visible
25 Oct 8.6 06:13:48 10° NNE 06:17:10 34° E 06:20:34 10° SSE visible
25 Oct 9.3 18:28:20 10° SSW 18:31:12 24° W 18:34:08 10° NW visible
